Tracking 28091 objects as of 30-Sep-2023
HD Live streaming from Space Station
objects crossing your sky now

STARLINK-30262

Track STARLINK-30262 now!
10-day predictions
STARLINK-30262 is classified as:


NORAD ID: 57535
Int'l Code: 2023-115Q
Perigee: 567.4 km
Apogee: 570.3 km
Inclination: 43.0 °
Period: 95.9 minutes
Semi major axis: 6939 km
RCS: Unknown
Launch date: August 8, 2023
Source: United States (US)
Launch site: AIR FORCE WESTERN TEST RANGE (AFWTR)
Your satellite tracking list
Your tracking list is empty




NASA's NSSDC Master Catalog

Two Line Element Set (TLE):
1 57535U 23115Q   23273.25001157  .00027745  00000-0  21071-2 0  9993
2 57535  43.0004 168.0849 0002109 272.7272 115.1825 15.01693217  9271
Source of the keplerian elements: AFSPC